Time,TemperatureF,DewpointF,PressureIn,WindDirection,WindDirectionDegrees,WindSpeedMPH,WindSpeedGustMPH,Humidity,HourlyPrecipIn,Conditions,Clouds,dailyrainin,SoftwareType,DateUTC
2013-03-13 00:01:00,68.0,57.0,29.99,North,355,4.0,-999.0,67,-99.99,,,-99.99,,2013-03-13 10:01:00,
2013-03-13 00:11:00,68.0,57.0,29.99,North,355,4.0,-999.0,67,-99.99,,,-99.99,,2013-03-13 10:11:00,
2013-03-13 00:22:00,68.0,57.0,29.98,NNE,17,5.0,-999.0,67,-99.99,,,-99.99,,2013-03-13 10:22:00,
2013-03-13 00:32:00,67.0,56.0,29.98,NNE,15,4.0,-999.0,68,-99.99,,,-99.99,,2013-03-13 10:32:00,
2013-03-13 00:42:00,67.0,56.0,29.98,NNE,15,4.0,-999.0,68,-99.99,,,-99.99,,2013-03-13 10:42:00,
2013-03-13 00:52:00,67.0,56.0,29.98,NNE,15,4.0,-999.0,69,-99.99,,,-99.99,,2013-03-13 10:52:00,
2013-03-13 01:02:00,67.0,57.0,29.98,NNE,15,4.0,-999.0,70,-99.99,,,-99.99,,2013-03-13 11:02:00,
2013-03-13 01:12:00,67.0,57.0,29.98,NNE,15,4.0,-999.0,70,-99.99,,,-99.99,,2013-03-13 11:12:00,
2013-03-13 01:22:00,67.0,57.0,29.98,NNE,15,3.0,-999.0,70,-99.99,,,-99.99,,2013-03-13 11:22:00,
2013-03-13 01:32:00,67.0,57.0,29.97,NNE,15,2.0,-999.0,70,-99.99,,,-99.99,,2013-03-13 11:32:00,
2013-03-13 01:42:00,67.0,57.0,29.97,NNE,15,2.0,-999.0,70,-99.99,,,-99.99,,2013-03-13 11:42:00,
2013-03-13 01:52:00,67.0,56.0,29.97,NNE,15,1.0,-999.0,69,-99.99,,,-99.99,,2013-03-13 11:52:00,
2013-03-13 02:02:00,67.0,56.0,29.96,NNE,15,0.0,-999.0,69,-99.99,,,-99.99,,2013-03-13 12:02:00,
2013-03-13 02:12:00,67.0,56.0,29.96,NNE,15,0.0,-999.0,69,-99.99,,,-99.99,,2013-03-13 12:12:00,
2013-03-13 02:22:00,68.0,57.0,29.96,NNE,25,2.0,-999.0,68,-99.99,,,-99.99,,2013-03-13 12:22:00,
2013-03-13 02:32:00,67.0,56.0,29.94,NNE,25,0.0,-999.0,68,-99.99,,,-99.99,,2013-03-13 12:32:00,
2013-03-13 02:42:00,67.0,56.0,29.94,NNE,25,0.0,-999.0,68,-99.99,,,-99.99,,2013-03-13 12:42:00,
2013-03-13 02:52:00,67.0,57.0,29.94,NNE,25,2.0,-999.0,70,-99.99,,,-99.99,,2013-03-13 12:52:00,
2013-03-13 03:02:00,67.0,57.0,29.93,NNE,25,1.0,-999.0,70,-99.99,,,-99.99,,2013-03-13 13:02:00,
2013-03-13 03:11:00,67.0,57.0,29.93,NNE,25,1.0,-999.0,70,-99.99,,,-99.99,,2013-03-13 13:11:00,
2013-03-13 03:21:00,67.0,57.0,29.93,NNE,25,2.0,-999.0,70,-99.99,,,-99.99,,2013-03-13 13:21:00,
2013-03-13 03:32:00,67.0,57.0,29.93,NNE,25,2.0,-999.0,71,-99.99,,,-99.99,,2013-03-13 13:32:00,
2013-03-13 03:42:00,67.0,57.0,29.93,NNE,25,2.0,-999.0,71,-99.99,,,-99.99,,2013-03-13 13:42:00,
2013-03-13 03:52:00,66.0,57.0,29.93,NNE,25,3.0,-999.0,73,-99.99,,,-99.99,,2013-03-13 13:52:00,
2013-03-13 04:02:00,66.0,57.0,29.93,NNE,25,4.0,-999.0,74,-99.99,,,-99.99,,2013-03-13 14:02:00,
2013-03-13 04:11:00,66.0,57.0,29.93,NNE,25,4.0,-999.0,74,-99.99,,,-99.99,,2013-03-13 14:11:00,
2013-03-13 04:21:00,66.0,58.0,29.93,NNE,25,2.0,-999.0,75,-99.99,,,-99.99,,2013-03-13 14:21:00,
2013-03-13 04:33:00,65.0,57.0,29.93,NNE,25,2.0,-999.0,75,-99.99,,,-99.99,,2013-03-13 14:33:00,
2013-03-13 04:42:00,65.0,57.0,29.93,NNE,25,2.0,-999.0,75,-99.99,,,-99.99,,2013-03-13 14:42:00,
2013-03-13 04:52:00,65.0,57.0,29.92,NNE,25,0.0,-999.0,76,-99.99,,,-99.99,,2013-03-13 14:52:00,
2013-03-13 05:02:00,66.0,57.0,29.93,NNE,25,1.0,-999.0,74,-99.99,,,-99.99,,2013-03-13 15:02:00,
2013-03-13 05:11:00,66.0,57.0,29.93,NNE,25,1.0,-999.0,74,-99.99,,,-99.99,,2013-03-13 15:11:00,
2013-03-13 05:22:00,65.0,57.0,29.93,NNE,25,0.0,-999.0,75,-99.99,,,-99.99,,2013-03-13 15:22:00,
2013-03-13 05:32:00,65.0,57.0,29.93,NNE,25,1.0,-999.0,76,-99.99,,,-99.99,,2013-03-13 15:32:00,
2013-03-13 05:42:00,65.0,57.0,29.93,NNE,25,1.0,-999.0,76,-99.99,,,-99.99,,2013-03-13 15:42:00,
2013-03-13 05:52:00,66.0,58.0,29.93,NNE,25,5.0,-999.0,76,-99.99,,,-99.99,,2013-03-13 15:52:00,
2013-03-13 06:02:00,66.0,58.0,29.93,NNE,25,4.0,-999.0,76,-99.99,,,-99.99,,2013-03-13 16:02:00,
2013-03-13 06:12:00,66.0,58.0,29.93,NNE,25,4.0,-999.0,76,-99.99,,,-99.99,,2013-03-13 16:12:00,
2013-03-13 06:21:00,65.0,58.0,29.93,NNE,25,2.0,-999.0,77,-99.99,,,-99.99,,2013-03-13 16:21:00,
2013-03-13 06:32:00,65.0,58.0,29.94,NNE,25,2.0,-999.0,78,-99.99,,,-99.99,,2013-03-13 16:32:00,
2013-03-13 06:42:00,65.0,58.0,29.94,NNE,25,2.0,-999.0,78,-99.99,,,-99.99,,2013-03-13 16:42:00,
2013-03-13 06:52:00,65.0,58.0,29.94,NNE,25,0.0,-999.0,78,-99.99,,,-99.99,,2013-03-13 16:52:00,
2013-03-13 07:02:00,65.0,58.0,29.96,NNE,25,0.0,-999.0,77,-99.99,,,-99.99,,2013-03-13 17:02:00,
2013-03-13 07:11:00,65.0,58.0,29.96,NNE,25,0.0,-999.0,77,-99.99,,,-99.99,,2013-03-13 17:11:00,
2013-03-13 07:22:00,65.0,58.0,29.96,NNE,25,0.0,-999.0,77,-99.99,,,-99.99,,2013-03-13 17:22:00,
2013-03-13 07:32:00,65.0,57.0,29.97,NNE,25,0.0,-999.0,76,-99.99,,,-99.99,,2013-03-13 17:32:00,
2013-03-13 07:42:00,65.0,57.0,29.97,NNE,25,0.0,-999.0,76,-99.99,,,-99.99,,2013-03-13 17:42:00,
2013-03-13 07:53:00,65.0,57.0,29.97,NNE,25,0.0,-999.0,76,-99.99,,,-99.99,,2013-03-13 17:53:00,
2013-03-13 08:02:00,66.0,58.0,29.98,NNE,25,4.0,-999.0,76,-99.99,,,-99.99,,2013-03-13 18:02:00,
2013-03-13 08:12:00,66.0,58.0,29.98,NNE,25,4.0,-999.0,76,-99.99,,,-99.99,,2013-03-13 18:12:00,
2013-03-13 08:22:00,67.0,58.0,29.98,NNE,25,3.0,-999.0,74,-99.99,,,-99.99,,2013-03-13 18:22:00,
2013-03-13 08:32:00,68.0,58.0,29.99,NNE,25,4.0,-999.0,71,-99.99,,,-99.99,,2013-03-13 18:32:00,
2013-03-13 08:42:00,68.0,58.0,29.99,NNE,25,4.0,-999.0,71,-99.99,,,-99.99,,2013-03-13 18:42:00,
2013-03-13 08:52:00,70.0,58.0,29.99,NNE,25,1.0,-999.0,66,-99.99,,,-99.99,,2013-03-13 18:52:00,
2013-03-13 09:02:00,72.0,58.0,29.99,NNE,25,1.0,-999.0,61,-99.99,,,-99.99,,2013-03-13 19:02:00,
2013-03-13 09:12:00,72.0,58.0,29.99,NNE,25,1.0,-999.0,61,-99.99,,,-99.99,,2013-03-13 19:12:00,
2013-03-13 09:22:00,73.0,59.0,30.00,North,11,5.0,-999.0,61,-99.99,,,-99.99,,2013-03-13 19:22:00,
2013-03-13 09:32:00,73.0,58.0,30.01,North,5,4.0,-999.0,60,-99.99,,,-99.99,,2013-03-13 19:32:00,
2013-03-13 09:42:00,73.0,58.0,30.01,North,5,4.0,-999.0,60,-99.99,,,-99.99,,2013-03-13 19:42:00,
2013-03-13 09:52:00,74.0,58.0,30.01,North,5,6.0,-999.0,57,-99.99,,,-99.99,,2013-03-13 19:52:00,
2013-03-13 10:02:00,73.0,57.0,30.01,North,5,7.0,-999.0,58,-99.99,,,-99.99,,2013-03-13 20:02:00,
2013-03-13 10:11:00,73.0,57.0,30.01,North,5,7.0,-999.0,58,-99.99,,,-99.99,,2013-03-13 20:11:00,
2013-03-13 10:21:00,74.0,58.0,30.01,NNE,19,4.0,-999.0,57,-99.99,,,-99.99,,2013-03-13 20:21:00,
2013-03-13 10:32:00,74.0,57.0,30.01,NNE,12,4.0,-999.0,56,-99.99,,,-99.99,,2013-03-13 20:32:00,
2013-03-13 10:41:00,74.0,57.0,30.01,NNE,12,4.0,-999.0,56,-99.99,,,-99.99,,2013-03-13 20:41:00,
2013-03-13 10:52:00,75.0,57.0,29.99,North,9,6.0,-999.0,54,-99.99,,,-99.99,,2013-03-13 20:52:00,
2013-03-13 11:02:00,76.0,61.0,29.99,NNW,333,2.0,-999.0,59,-99.99,,,-99.99,,2013-03-13 21:02:00,
2013-03-13 11:11:00,76.0,61.0,29.99,NNW,333,2.0,-999.0,59,-99.99,,,-99.99,,2013-03-13 21:11:00,
2013-03-13 11:21:00,76.0,60.0,29.98,WSW,238,2.0,-999.0,58,-99.99,,,-99.99,,2013-03-13 21:21:00,
2013-03-13 11:42:00,74.0,58.0,29.97,SSW,206,4.0,-999.0,58,-99.99,,,-99.99,,2013-03-13 21:42:00,
2013-03-13 11:51:00,75.0,60.0,29.96,SW,234,4.0,-999.0,60,-99.99,,,-99.99,,2013-03-13 21:51:00,
2013-03-13 12:02:00,76.0,61.0,29.96,SSW,209,11.0,-999.0,60,-99.99,,,-99.99,,2013-03-13 22:02:00,
2013-03-13 12:12:00,76.0,61.0,29.96,SSW,209,11.0,-999.0,60,-99.99,,,-99.99,,2013-03-13 22:12:00,
2013-03-13 12:22:00,75.0,60.0,29.97,WSW,257,11.0,-999.0,60,-99.99,,,-99.99,,2013-03-13 22:22:00,
2013-03-13 12:32:00,76.0,61.0,29.97,WSW,238,10.0,-999.0,59,-99.99,,,-99.99,,2013-03-13 22:32:00,
2013-03-13 12:42:00,76.0,61.0,29.97,WSW,238,10.0,-999.0,59,-99.99,,,-99.99,,2013-03-13 22:42:00,
2013-03-13 12:52:00,75.0,60.0,29.97,SW,234,9.0,-999.0,60,-99.99,,,-99.99,,2013-03-13 22:52:00,
2013-03-13 13:02:00,76.0,61.0,29.96,SSW,213,9.0,-999.0,59,-99.99,,,-99.99,,2013-03-13 23:02:00,
2013-03-13 13:12:00,76.0,61.0,29.96,SSW,213,9.0,-999.0,59,-99.99,,,-99.99,,2013-03-13 23:12:00,
2013-03-13 13:22:00,75.0,60.0,29.96,SSW,205,8.0,-999.0,60,-99.99,,,-99.99,,2013-03-13 23:22:00,
2013-03-13 13:32:00,74.0,60.0,29.96,SW,232,9.0,-999.0,61,-99.99,,,-99.99,,2013-03-13 23:32:00,
2013-03-13 13:42:00,74.0,60.0,29.96,SW,232,9.0,-999.0,61,-99.99,,,-99.99,,2013-03-13 23:42:00,
2013-03-13 13:52:00,75.0,60.0,29.95,SSW,211,9.0,-999.0,60,-99.99,,,-99.99,,2013-03-13 23:52:00,
2013-03-13 14:02:00,75.0,61.0,29.94,SSW,202,9.0,-999.0,61,-99.99,,,-99.99,,2013-03-14 00:02:00,
2013-03-13 14:12:00,75.0,61.0,29.94,SSW,202,9.0,-999.0,61,-99.99,,,-99.99,,2013-03-14 00:12:00,
2013-03-13 14:21:00,75.0,61.0,29.94,South,189,10.0,-999.0,61,-99.99,,,-99.99,,2013-03-14 00:21:00,
2013-03-13 14:32:00,75.0,62.0,29.93,SW,229,10.0,-999.0,64,-99.99,,,-99.99,,2013-03-14 00:32:00,
2013-03-13 14:42:00,75.0,62.0,29.93,SW,229,10.0,-999.0,64,-99.99,,,-99.99,,2013-03-14 00:42:00,
2013-03-13 14:52:00,75.0,61.0,29.93,SSW,195,9.0,-999.0,61,-99.99,,,-99.99,,2013-03-14 00:52:00,
2013-03-13 15:02:00,74.0,61.0,29.92,South,184,9.0,-999.0,63,-99.99,,,-99.99,,2013-03-14 01:02:00,
2013-03-13 15:12:00,74.0,61.0,29.92,South,184,9.0,-999.0,63,-99.99,,,-99.99,,2013-03-14 01:12:00,
2013-03-13 15:22:00,75.0,61.0,29.91,SSW,194,9.0,-999.0,62,-99.99,,,-99.99,,2013-03-14 01:22:00,
2013-03-13 15:32:00,74.0,61.0,29.91,SW,222,10.0,-999.0,64,-99.99,,,-99.99,,2013-03-14 01:32:00,
2013-03-13 15:42:00,74.0,61.0,29.91,SW,222,10.0,-999.0,64,-99.99,,,-99.99,,2013-03-14 01:42:00,
2013-03-13 15:52:00,74.0,61.0,29.91,SW,215,8.0,-999.0,64,-99.99,,,-99.99,,2013-03-14 01:52:00,
2013-03-13 16:02:00,75.0,63.0,29.91,South,187,9.0,-999.0,66,-99.99,,,-99.99,,2013-03-14 02:02:00,
2013-03-13 16:12:00,75.0,63.0,29.91,South,187,9.0,-999.0,66,-99.99,,,-99.99,,2013-03-14 02:12:00,
2013-03-13 16:22:00,75.0,62.0,29.91,South,186,8.0,-999.0,64,-99.99,,,-99.99,,2013-03-14 02:22:00,
2013-03-13 16:32:00,75.0,62.0,29.91,SSW,201,8.0,-999.0,64,-99.99,,,-99.99,,2013-03-14 02:32:00,
2013-03-13 16:42:00,75.0,62.0,29.91,SSW,201,8.0,-999.0,64,-99.99,,,-99.99,,2013-03-14 02:42:00,
2013-03-13 16:51:00,75.0,62.0,29.91,SSW,201,8.0,-999.0,64,-99.99,,,-99.99,,2013-03-14 02:51:00,
2013-03-13 17:01:00,75.0,62.0,29.91,South,178,7.0,-999.0,64,-99.99,,,-99.99,,2013-03-14 03:01:00,
2013-03-13 17:12:00,75.0,62.0,29.91,South,178,7.0,-999.0,64,-99.99,,,-99.99,,2013-03-14 03:12:00,
2013-03-13 17:22:00,75.0,62.0,29.91,SSW,200,6.0,-999.0,65,-99.99,,,-99.99,,2013-03-14 03:22:00,
2013-03-13 17:32:00,74.0,61.0,29.91,South,186,8.0,-999.0,65,-99.99,,,-99.99,,2013-03-14 03:32:00,
2013-03-13 17:42:00,74.0,61.0,29.91,South,186,8.0,-999.0,65,-99.99,,,-99.99,,2013-03-14 03:42:00,
2013-03-13 17:52:00,74.0,61.0,29.91,South,186,8.0,-999.0,65,-99.99,,,-99.99,,2013-03-14 03:52:00,
2013-03-13 18:12:00,75.0,62.0,29.93,South,171,6.0,-999.0,64,-99.99,,,-99.99,,2013-03-14 04:12:00,
2013-03-13 18:22:00,74.0,61.0,29.93,South,180,6.0,-999.0,64,-99.99,,,-99.99,,2013-03-14 04:22:00,
2013-03-13 18:32:00,74.0,61.0,29.93,South,175,4.0,-999.0,65,-99.99,,,-99.99,,2013-03-14 04:32:00,
2013-03-13 18:42:00,74.0,61.0,29.93,South,175,4.0,-999.0,65,-99.99,,,-99.99,,2013-03-14 04:42:00,
2013-03-13 18:52:00,73.0,61.0,29.93,SSE,167,6.0,-999.0,66,-99.99,,,-99.99,,2013-03-14 04:52:00,
2013-03-13 19:02:00,73.0,62.0,29.93,SSE,165,4.0,-999.0,68,-99.99,,,-99.99,,2013-03-14 05:02:00,
2013-03-13 19:12:00,73.0,62.0,29.93,SSE,165,4.0,-999.0,68,-99.99,,,-99.99,,2013-03-14 05:12:00,
2013-03-13 19:22:00,72.0,61.0,29.94,South,180,5.0,-999.0,68,-99.99,,,-99.99,,2013-03-14 05:22:00,
2013-03-13 19:33:00,72.0,61.0,29.94,South,174,4.0,-999.0,68,-99.99,,,-99.99,,2013-03-14 05:33:00,
2013-03-13 19:42:00,72.0,61.0,29.94,South,174,4.0,-999.0,68,-99.99,,,-99.99,,2013-03-14 05:42:00,
2013-03-13 19:52:00,72.0,61.0,29.94,South,179,5.0,-999.0,68,-99.99,,,-99.99,,2013-03-14 05:52:00,
2013-03-13 20:02:00,73.0,62.0,29.94,South,180,5.0,-999.0,68,-99.99,,,-99.99,,2013-03-14 06:02:00,
2013-03-13 20:12:00,73.0,62.0,29.94,South,180,5.0,-999.0,68,-99.99,,,-99.99,,2013-03-14 06:12:00,
2013-03-13 20:21:00,73.0,62.0,29.96,South,186,4.0,-999.0,69,-99.99,,,-99.99,,2013-03-14 06:21:00,
2013-03-13 20:32:00,72.0,61.0,29.96,South,186,2.0,-999.0,68,-99.99,,,-99.99,,2013-03-14 06:32:00,
2013-03-13 20:42:00,72.0,61.0,29.96,South,186,2.0,-999.0,68,-99.99,,,-99.99,,2013-03-14 06:42:00,
2013-03-13 20:52:00,72.0,61.0,29.96,SSW,194,3.0,-999.0,69,-99.99,,,-99.99,,2013-03-14 06:52:00,
2013-03-13 21:01:00,72.0,61.0,29.97,SSW,200,4.0,-999.0,68,-99.99,,,-99.99,,2013-03-14 07:01:00,
2013-03-13 21:11:00,72.0,61.0,29.97,SSW,200,4.0,-999.0,68,-99.99,,,-99.99,,2013-03-14 07:11:00,
2013-03-13 21:22:00,72.0,61.0,29.97,SSW,200,2.0,-999.0,69,-99.99,,,-99.99,,2013-03-14 07:22:00,
2013-03-13 21:32:00,72.0,61.0,29.97,SSW,213,3.0,-999.0,69,-99.99,,,-99.99,,2013-03-14 07:32:00,
2013-03-13 21:42:00,72.0,61.0,29.97,SSW,213,3.0,-999.0,69,-99.99,,,-99.99,,2013-03-14 07:42:00,
2013-03-13 21:52:00,71.0,61.0,29.97,SW,227,2.0,-999.0,70,-99.99,,,-99.99,,2013-03-14 07:52:00,
2013-03-13 22:02:00,70.0,60.0,29.98,WSW,248,3.0,-999.0,71,-99.99,,,-99.99,,2013-03-14 08:02:00,
2013-03-13 22:11:00,70.0,60.0,29.98,WSW,248,3.0,-999.0,71,-99.99,,,-99.99,,2013-03-14 08:11:00,
2013-03-13 22:21:00,70.0,61.0,29.98,NW,313,4.0,-999.0,72,-99.99,,,-99.99,,2013-03-14 08:21:00,
2013-03-13 22:32:00,69.0,60.0,29.98,NW,313,4.0,-999.0,73,-99.99,,,-99.99,,2013-03-14 08:32:00,
2013-03-13 22:41:00,69.0,60.0,29.98,NW,313,4.0,-999.0,73,-99.99,,,-99.99,,2013-03-14 08:41:00,
2013-03-13 22:51:00,69.0,60.0,29.99,NW,313,4.0,-999.0,74,-99.99,,,-99.99,,2013-03-14 08:51:00,
2013-03-13 23:01:00,69.0,61.0,30.00,NW,313,2.0,-999.0,75,-99.99,,,-99.99,,2013-03-14 09:01:00,
2013-03-13 23:12:00,69.0,61.0,30.00,NW,313,2.0,-999.0,75,-99.99,,,-99.99,,2013-03-14 09:12:00,
2013-03-13 23:22:00,68.0,60.0,29.99,NW,313,1.0,-999.0,76,-99.99,,,-99.99,,2013-03-14 09:22:00,
2013-03-13 23:32:00,68.0,61.0,29.98,NW,313,0.0,-999.0,78,-99.99,,,-99.99,,2013-03-14 09:32:00,
2013-03-13 23:42:00,68.0,61.0,29.98,NW,313,0.0,-999.0,78,-99.99,,,-99.99,,2013-03-14 09:42:00,
2013-03-13 23:52:00,69.0,61.0,29.98,NW,313,0.0,-999.0,76,-99.99,,,-99.99,,2013-03-14 09:52:00,